RSW-02 (49114 NORAD) Tracking and Keplerian Element Data

This shows tracking and keplerian element data for the satellite.

Feedback or suggestion? Click here.




ElementValue
Catalog49114
NameRSW-02
Epoch Orbit343
Epoch Day262.07560346
Epoch Year2021
RAAN56.7667
Inclination86.4048
Eccentricity0.0017541
Argument of Perigee225.2766
Mean Anonmoly134.6952
Mean Motion13.42697144
Decay Rate3.7E-07
L11 49114U 21076C 21262.07560346 .00000037 00000-0 38176-4 0 9998
L22 49114 86.4048 56.7667 0017541 225.2766 134.6952 13.42697144 3437

Live tracking and technical data element details for RSW-02 (NORAD 49114). RSW-02 can be tracked NOW for your location showing map with azimuth and elevation plus other details from your city location.

Track the satellite on the map from your city or location and see movement details for azimuth, elevation, latitude, longitude, range, height, and movement on the map or in text.







IsCatalogInMostPopularTable: catalog: 49114, numindb: 9
Update: records affected: 1



GetName: 49114 RSW-02

Hit Count: updated at: Fri, 24 Sep 2021 18:52:59 GMT